[[{"header":{"parameterUnit":"m.s-1","parameterCategory":2,"la1":30.2991,"la2":30.254,"lo1":-89.0895,"lo2":-89.0444,"dy":0.0017,"dx":0.0017,"nx":28,"ny":28,"refTime":"2025-12-18T03:00:00:Z","depth":"0","parameterNumber":2,"parameterNumberName":"U-component_of_CURRENTS"},"data":[0,0,0,0,0,0,0,0,0,0,0,0,0,0,0,0,0,0,0,0,0,0,0,0,0,0,0,0,0,0,0,0,0,0,0,0,0,0,0,0,0,0,0,0,0,0,0,0,0,0,0,0,0,0,0,0,0,0,0.3633,0.3634,0,0.3695,0.3695,0.3695,0.3691,0.3691,0.369,0.369,0.3693,0.3693,0.3694,0,0,0,0,0,0,0,0,0,0,0,0,0,0.3514,0.3516,0.3633,0.3634,0.3636,0.3695,0.3695,0.3695,0.3691,0.3691,0.369,0.369,0.3693,0.3693,0.3694,0,0,0,0,0,0,0,0,0,0,0,0,0,0.3565,0.3516,0.3633,0.3644,0.3646,0.3694,0.3695,0.3696,0.3692,0.3691,0.369,0.3689,0.3692,0.3693,0.3694,0.3714,0,0,0.3696,0.3697,0,0,0,0,0,0,0,0,0.3562,0.3569,0.3641,0.3643,0.3646,0.3688,0.3654,0.37,0.3692,0.367,0.369,0.3689,0.3689,0.369,0.3698,0.3714,0.3714,0.3696,0.3697,0.3697,0.3698,0,0,0,0,0,0,0,0.3559,0.3567,0.3653,0.3643,0.3645,0.3646,0.3652,0.3663,0.3678,0.3672,0.3672,0.3686,0.3689,0.3697,0.3698,0.3714,0.3696,0.3697,0.3698,0.3698,0.379,0.3792,0,0,0,0,0,0,0.3561,0.3564,0.3651,0.3655,0.3606,0.3649,0.3656,0.3672,0.368,0.3682,0.3687,0.3686,0.3696,0.3697,0.3698,0.376,0.3697,0.3698,0.3699,0.3788,0.379,0.3792,0,0,0,0,0,0,0.3558,0.3569,0.3649,0.3614,0.3625,0.3653,0.367,0.3674,0.3687,0.3693,0.3693,0.3698,0.3696,0.3697,0.3723,0.3758,0.3698,0.3699,0.3785,0.3788,0.3791,0.386,0,0,0,0,0,0,0.3555,0.3567,0.3579,0.3614,0.3627,0.3689,0.3672,0.3675,0.3699,0.3698,0.3703,0.3702,0.3695,0.3722,0.3724,0.3758,0.37,0.3783,0.3787,0.379,0.3855,0.3864,0.3873,0,0,0,0,0,0.355,0.357,0.3579,0.359,0.3642,0.3691,0.3697,0.3711,0.37,0.3717,0.3721,0.3702,0.3747,0.3725,0.3726,0.3762,0.3781,0.3786,0.379,0.3851,0.3863,0.3872,0,0,0,0,0,0,0.3519,0.3574,0.3583,0.3617,0.3657,0.3692,0.3711,0.3718,0.3735,0.3733,0.3724,0.3725,0.3766,0.3755,0.3731,0.3801,0.3762,0.3767,0.3808,0.3819,0.3828,0.3833,0.3701,0,0,0,0,0,0.3521,0.3552,0.3602,0.3629,0.3652,0.3682,0.3702,0.3717,0.3739,0.3746,0.375,0.376,0.3786,0.3794,0.3812,0.3844,0.3858,0.387,0.3878,0.3886,0.3893,0.3951,0.3966,0.3807,0.3807,0.3806,0,0,0.3515,0.3551,0.3567,0.3626,0.3655,0.3698,0.3691,0.3734,0.3766,0.3744,0.3782,0.3793,0.3804,0.3848,0.3864,0.384,0.3943,0.3892,0.3898,0.3901,0.3957,0.3973,0.3987,0.381,0.3809,0.3809,0,0,0.3527,0.3556,0.359,0.3629,0.3688,0.3713,0.3728,0.3773,0.3792,0.3832,0.3834,0.3867,0.3889,0.3915,0.3927,0.3996,0.3993,0.4001,0.4045,0.4102,0.4115,0.4127,0.4181,0.4197,0.4,0.4,0.4,0,0.3518,0.3567,0.3606,0.3652,0.3687,0.3722,0.3766,0.3798,0.3843,0.3872,0.3851,0.3924,0.3925,0.3996,0.4019,0.4017,0.4046,0.4001,0.4114,0.4125,0.4137,0.4189,0.4206,0.4004,0.4004,0.4003,0.4003,0,0.3558,0.3599,0.3625,0.3694,0.3738,0.3782,0.384,0.388,0.39,0.3933,0.4004,0.4017,0.4059,0.4071,0.4061,0.415,0.4146,0.4122,0.4084,0.4157,0.4207,0.4224,0.4009,0.4008,0.4007,0.4006,0,0,0.3528,0.3631,0.3638,0.3673,0.3764,0.3798,0.3875,0.3952,0.3999,0.4043,0.4109,0.4155,0.4167,0.4183,0.4188,0.4229,0.4331,0.4209,0.421,0.4259,0.4465,0.4493,0.4513,0.4328,0.4331,0.4334,0.4474,0,0.3544,0.3619,0.3677,0.3746,0.3789,0.3859,0.3922,0.3998,0.4057,0.4129,0.4176,0.4234,0.421,0.4234,0.428,0.4324,0.4375,0.4295,0.439,0.4393,0.4407,0.4534,0.4525,0.4653,0.449,0.4493,0.4495,0,0.3557,0.3608,0.3675,0.377,0.3796,0.3841,0.395,0.4015,0.4138,0.4188,0.4271,0.4312,0.4405,0.4355,0.4482,0.4434,0.4458,0.4479,0.4484,0.4496,0.4452,0.4552,0.4689,0.4668,0.452,0.4518,0.4516,0,0.3498,0.3602,0.3648,0.3682,0.3798,0.3839,0.39,0.4023,0.411,0.423,0.4314,0.4409,0.4484,0.4531,0.4599,0.4545,0.4733,0.466,0.4711,0.4712,0.4717,0.4714,0.4841,0.4746,0.4745,0.4745,0.4744,0,0.3485,0.3519,0.3616,0.3639,0.3702,0.3793,0.3879,0.3964,0.4119,0.4224,0.4333,0.4446,0.4534,0.4655,0.4662,0.4775,0.4795,0.4759,0.4768,0.4742,0.474,0.4728,0.469,0.475,0.4749,0.4748,0.4747,0,0.3415,0.3479,0.3533,0.3639,0.3674,0.3712,0.3874,0.394,0.4098,0.4249,0.4301,0.4524,0.4681,0.4781,0.4889,0.4886,0.4871,0.4976,0.4947,0.495,0.4937,0.4903,0.4759,0.4587,0.5049,0.5051,0.5052,0,0.3386,0.3404,0.3508,0.3535,0.358,0.3662,0.3722,0.3898,0.3993,0.4284,0.4354,0.4599,0.4761,0.4992,0.5052,0.514,0.4955,0.5135,0.5019,0.4984,0.4952,0.4664,0.4504,0.5057,0.5059,0.506,0.5061,0,0.333,0.3361,0.3405,0.3467,0.3519,0.3591,0.3697,0.3787,0.3995,0.4158,0.4388,0.4563,0.4874,0.502,0.5186,0.5209,0.4969,0.5159,0.5139,0.5005,0.4682,0.4506,0.4908,0.5071,0.507,0.5069,0.5069,0.5068,0.328,0.3291,0.3347,0.3396,0.3447,0.3496,0.3523,0.3674,0.3832,0.4064,0.4293,0.4544,0.4937,0.5208,0.5183,0.526,0.504,0.5185,0.516,0.4877,0.4668,0.5099,0.5253,0.5253,0.5253,0.5253,0.5253,0,0.3224,0.3244,0.3278,0.3321,0.3323,0.3391,0.3485,0.3509,0.3632,0.3942,0.4153,0.4615,0.4917,0.5166,0.5452,0.5337,0.4976,0.5216,0.4846,0.4689,0.5158,0.5123,0.5235,0.5235,0.5235,0.5235,0.5235,0.5235,0.3199,0.3204,0.322,0.3193,0.3206,0.3183,0.3203,0.3275,0.3465,0.3756,0.4042,0.4328,0.4994,0.5559,0.5649,0.5481,0.5012,0.4853,0.4664,0.5128,0.5122,0.5115,0.5076,0.5176,0.5176,0.4026,0.4019,0.4014]},{"header":{"parameterUnit":"m.s-1","parameterCategory":2,"la1":30.2991,"la2":30.254,"lo1":-89.0895,"lo2":-89.0444,"dy":0.0017,"dx":0.0017,"nx":28,"ny":28,"refTime":"2025-12-18T03:00:00:Z","depth":"0","parameterNumber":3,"parameterNumberName":"V-component_of_CURRENTS"},"data":[0,0,0,0,0,0,0,0,0,0,0,0,0,0,0,0,0,0,0,0,0,0,0,0,0,0,0,0,0,0,0,0,0,0,0,0,0,0,0,0,0,0,0,0,0,0,0,0,0,0,0,0,0,0,0,0,0,0,-0.013,-0.0131,0,-0.0225,-0.0227,-0.0228,-0.0301,-0.0302,-0.0302,-0.0303,-0.0455,-0.0459,-0.0462,0,0,0,0,0,0,0,0,0,0,0,0,0,-0.0099,-0.0099,-0.013,-0.0131,-0.0132,-0.0225,-0.0227,-0.0228,-0.0301,-0.0302,-0.0302,-0.0303,-0.0454,-0.0458,-0.0463,0,0,0,0,0,0,0,0,0,0,0,0,0,-0.0148,-0.0099,-0.013,-0.0178,-0.0183,-0.0225,-0.0227,-0.0229,-0.0301,-0.0302,-0.0303,-0.0303,-0.0453,-0.0458,-0.0463,-0.0484,0,0,-0.048,-0.0482,0,0,0,0,0,0,0,0,-0.0145,-0.0149,-0.017,-0.0174,-0.018,-0.025,-0.0272,-0.0316,-0.0301,-0.0259,-0.0303,-0.0304,-0.039,-0.04,-0.042,-0.0491,-0.0497,-0.048,-0.0484,-0.0486,-0.0488,0,0,0,0,0,0,0,-0.0141,-0.0146,-0.0171,-0.0171,-0.0177,-0.0224,-0.0231,-0.0281,-0.0323,-0.0263,-0.0268,-0.0274,-0.0393,-0.0414,-0.0424,-0.0499,-0.048,-0.0485,-0.0489,-0.0491,-0.0598,-0.0598,0,0,0,0,0,0,-0.0118,-0.0142,-0.0168,-0.0173,-0.0161,-0.0224,-0.0232,-0.0229,-0.0321,-0.0334,-0.0273,-0.0277,-0.0405,-0.0417,-0.043,-0.0445,-0.0486,-0.0491,-0.0494,-0.0599,-0.0598,-0.0598,0,0,0,0,0,0,-0.0117,-0.0119,-0.0164,-0.0158,-0.0167,-0.0222,-0.0219,-0.023,-0.025,-0.0328,-0.0343,-0.028,-0.0406,-0.0422,-0.0465,-0.0452,-0.0494,-0.0499,-0.0599,-0.0599,-0.0598,-0.0484,0,0,0,0,0,0,-0.0116,-0.0118,-0.0111,-0.0156,-0.0166,-0.0176,-0.0219,-0.0232,-0.0251,-0.0257,-0.0339,-0.0354,-0.0407,-0.0456,-0.047,-0.046,-0.0503,-0.06,-0.0599,-0.0598,-0.0488,-0.0479,-0.0472,0,0,0,0,0,-0.0114,-0.009,-0.0109,-0.0113,-0.0153,-0.0175,-0.0185,-0.0229,-0.0251,-0.0251,-0.0306,-0.0351,-0.0462,-0.046,-0.0477,-0.0468,-0.06,-0.0599,-0.0598,-0.0492,-0.0481,-0.0472,0,0,0,0,0,0,-0.0073,-0.0097,-0.0119,-0.0104,-0.0134,-0.0186,-0.0188,-0.022,-0.0264,-0.0268,-0.0347,-0.0365,-0.04,-0.0449,-0.0445,-0.0497,-0.0538,-0.0541,-0.0452,-0.0442,-0.0434,-0.0405,-0.0507,0,0,0,0,0,-0.0058,-0.0048,-0.0086,-0.0076,-0.0085,-0.0136,-0.0152,-0.0178,-0.0222,-0.0242,-0.0298,-0.0358,-0.0409,-0.0436,-0.0489,-0.0515,-0.0564,-0.0521,-0.0512,-0.0505,-0.0493,-0.056,-0.0557,-0.0595,-0.0595,-0.0595,0,0,-0.0039,-0.0052,-0.0047,-0.0067,-0.0094,-0.0089,-0.0147,-0.0156,-0.0157,-0.0251,-0.0269,-0.0332,-0.041,-0.044,-0.0459,-0.0478,-0.0518,-0.0504,-0.0497,-0.0489,-0.0559,-0.0555,-0.0552,-0.0594,-0.0594,-0.0594,0,0,0.0012,-0.0006,0.0021,0.0005,-0.002,-0.005,-0.0046,-0.0091,-0.0116,-0.0143,-0.021,-0.026,-0.0336,-0.0386,-0.0423,-0.0402,-0.0474,-0.0421,-0.0356,-0.042,-0.0417,-0.0416,-0.0459,-0.0462,-0.0415,-0.0415,-0.0415,0,0.0034,0.0064,0.0023,0.0043,0.0043,-0.0023,0.0007,-0.0028,-0.0082,-0.0095,-0.0131,-0.0241,-0.0309,-0.0348,-0.0343,-0.0382,-0.0425,-0.0383,-0.0408,-0.0408,-0.0408,-0.0453,-0.0458,-0.0409,-0.041,-0.0411,-0.0411,0,0.0105,0.0124,0.0141,0.0146,0.0138,0.0153,0.0109,0.0093,0.0053,0.0013,-0.0036,-0.0133,-0.0195,-0.0229,-0.0282,-0.0312,-0.0343,-0.0389,-0.0427,-0.0396,-0.0447,-0.0453,-0.0401,-0.0403,-0.0405,-0.0407,0,0,0.0166,0.0189,0.0194,0.0221,0.0198,0.0207,0.0205,0.0188,0.0197,0.0117,0.0114,0.0009,-0.0049,-0.0095,-0.0174,-0.0235,-0.0275,-0.0302,-0.0308,-0.0332,-0.0403,-0.0425,-0.0436,-0.0328,-0.0328,-0.0329,-0.0432,0,0.0233,0.0307,0.0292,0.0356,0.0392,0.0341,0.0351,0.0322,0.0277,0.0253,0.0141,0.0103,0.0003,-0.0023,-0.01,-0.0232,-0.029,-0.0242,-0.0439,-0.0444,-0.0459,-0.0444,-0.0431,-0.0522,-0.0439,-0.044,-0.0441,0,0.0307,0.0351,0.0431,0.0477,0.0488,0.0506,0.0516,0.0516,0.0454,0.0416,0.0344,0.0259,0.0162,0.0072,-0.0133,-0.0098,-0.0233,-0.0343,-0.0351,-0.0416,-0.048,-0.0545,-0.0539,-0.0826,-0.0453,-0.0452,-0.0451,0,0.0381,0.0448,0.0521,0.0535,0.0569,0.0589,0.0597,0.0563,0.0591,0.0517,0.0528,0.0379,0.0324,0.0128,-0.0096,-0.0116,-0.0321,-0.0382,-0.0528,-0.0531,-0.0581,-0.0586,-0.0866,-0.0522,-0.0521,-0.0521,-0.0521,0,0.0462,0.052,0.0563,0.0602,0.0696,0.0675,0.0753,0.0726,0.0723,0.0774,0.062,0.0631,0.0335,0.0187,-0.0044,-0.0296,-0.0286,-0.0508,-0.056,-0.0539,-0.054,-0.0841,-0.104,-0.0525,-0.0524,-0.0523,-0.0523,0,0.053,0.0553,0.0647,0.0706,0.0733,0.0794,0.0877,0.0933,0.0901,0.0961,0.0952,0.0823,0.0625,0.0331,0.0018,-0.0206,-0.0643,-0.0554,-0.0497,-0.0541,-0.0946,-0.1137,-0.1492,-0.1638,-0.0731,-0.0733,-0.0734,0,0.0572,0.0629,0.0733,0.0802,0.0832,0.0925,0.0999,0.1013,0.1092,0.1094,0.1147,0.0986,0.0917,0.0452,0.0011,-0.0393,-0.0686,-0.0652,-0.0699,-0.0963,-0.1216,-0.1344,-0.145,-0.0719,-0.072,-0.072,-0.0721,0,0.066,0.0691,0.0773,0.0918,0.1011,0.1139,0.1246,0.1348,0.1375,0.1437,0.1493,0.1442,0.0991,0.061,0.0036,-0.0283,-0.0889,-0.0678,-0.0982,-0.1253,-0.1385,-0.1548,-0.0648,-0.0727,-0.0726,-0.0726,-0.0725,-0.0725,0.0725,0.0801,0.091,0.1052,0.1172,0.1337,0.147,0.1605,0.1763,0.1897,0.1802,0.1815,0.1201,0.0429,-0.0073,-0.0933,-0.0965,-0.1162,-0.1375,-0.1479,-0.1627,-0.0723,-0.0844,-0.0845,-0.0845,-0.0845,-0.0845,0,0.0812,0.0904,0.1041,0.1213,0.1368,0.1411,0.1635,0.1791,0.2015,0.216,0.2228,0.199,0.1202,0.0381,-0.0769,-0.1442,-0.1726,-0.1843,-0.2043,-0.212,-0.1332,-0.1335,-0.153,-0.153,-0.153,-0.1529,-0.1529,-0.1529,0.0861,0.1006,0.1082,0.135,0.1481,0.171,0.1855,0.2088,0.2275,0.2517,0.2601,0.26,0.2033,-0.0192,-0.1686,-0.2099,-0.2626,-0.2776,-0.3019,-0.2502,-0.2454,-0.2409,-0.2456,-0.2883,-0.2885,-0.368,-0.3689,-0.3695]}],[{"header":{"parameterUnit":"m.s-1","parameterCategory":2,"la1":30.2991,"la2":30.254,"lo1":-89.0895,"lo2":-89.0444,"dy":0.0017,"dx":0.0017,"nx":28,"ny":28,"refTime":"2025-12-18T03:00:00:Z","depth":"2","parameterNumber":2,"parameterNumberName":"U-component_of_CURRENTS"},"data":[0,0,0,0,0,0,0,0,0,0,0,0,0,0,0,0,0,0,0,0,0,0,0,0,0,0,0,0,0,0,0,0,0,0,0,0,0,0,0,0,0,0,0,0,0,0,0,0,0,0,0,0,0,0,0,0,0,0,0.3565,0.3566,0,0.3625,0.3625,0.3626,0.3624,0.3624,0.3623,0.3623,0.3628,0.3628,0.3629,0,0,0,0,0,0,0,0,0,0,0,0,0,0.3449,0.3451,0.3565,0.3566,0.3567,0.3625,0.3625,0.3626,0.3624,0.3624,0.3623,0.3623,0.3628,0.3628,0.3629,0,0,0,0,0,0,0,0,0,0,0,0,0,0.3499,0.3451,0.3565,0.3577,0.3579,0.3625,0.3625,0.3626,0.3624,0.3624,0.3623,0.3623,0.3628,0.3628,0.3629,0.3646,0,0,0.3632,0.3632,0,0,0,0,0,0,0,0,0.3496,0.3503,0.3574,0.3576,0.3579,0.362,0.3586,0.3631,0.3625,0.3603,0.3623,0.3622,0.3624,0.3625,0.3632,0.3647,0.3647,0.3632,0.3632,0.3632,0.3633,0,0,0,0,0,0,0,0.3493,0.35,0.3584,0.3575,0.3578,0.3579,0.3585,0.3595,0.3612,0.3604,0.3606,0.3619,0.3624,0.3631,0.3632,0.3647,0.3632,0.3632,0.3633,0.3633,0.3723,0.3725,0,0,0,0,0,0,0.3495,0.3497,0.3583,0.3587,0.354,0.3582,0.3589,0.3604,0.3613,0.3615,0.362,0.3619,0.363,0.3631,0.3632,0.3695,0.3632,0.3633,0.3634,0.3721,0.3723,0.3725,0,0,0,0,0,0,0.3493,0.3502,0.358,0.3546,0.3557,0.3585,0.3602,0.3606,0.362,0.3626,0.3626,0.3632,0.363,0.3631,0.3658,0.3693,0.3633,0.3634,0.3719,0.3722,0.3724,0.3793,0,0,0,0,0,0,0.3489,0.3501,0.3513,0.3547,0.3559,0.3619,0.3604,0.3607,0.3631,0.3631,0.3637,0.3636,0.3629,0.3657,0.3659,0.3693,0.3635,0.3716,0.372,0.3723,0.3788,0.3798,0.3806,0,0,0,0,0,0.3485,0.3504,0.3513,0.3524,0.3575,0.3621,0.3627,0.3642,0.3633,0.3649,0.3655,0.3636,0.3681,0.3659,0.3661,0.3696,0.3714,0.3719,0.3723,0.3784,0.3796,0.3806,0,0,0,0,0,0,0.3454,0.3508,0.3517,0.3551,0.3589,0.3623,0.3643,0.3649,0.3667,0.3667,0.3658,0.3659,0.37,0.3689,0.3665,0.3734,0.3696,0.3701,0.3742,0.3753,0.3762,0.3767,0.3635,0,0,0,0,0,0.3457,0.3488,0.3535,0.3563,0.3585,0.3615,0.3634,0.3649,0.3672,0.3679,0.3683,0.3694,0.3719,0.3727,0.3745,0.3776,0.379,0.3802,0.3811,0.3818,0.3826,0.3882,0.3896,0.3739,0.3739,0.3739,0,0,0.3452,0.3487,0.3503,0.3559,0.3589,0.363,0.3624,0.3666,0.3698,0.3677,0.3715,0.3727,0.3737,0.378,0.3797,0.3773,0.3875,0.3824,0.383,0.3833,0.3888,0.3903,0.3917,0.3742,0.3742,0.3741,0,0,0.3464,0.3493,0.3526,0.3564,0.3622,0.3646,0.3662,0.3706,0.3724,0.3765,0.3767,0.38,0.3822,0.3847,0.3859,0.3927,0.3923,0.3932,0.3976,0.4031,0.4045,0.4056,0.4109,0.4125,0.3931,0.3932,0.3932,0,0.3457,0.3503,0.3542,0.3587,0.3621,0.3655,0.3698,0.373,0.3775,0.3803,0.3785,0.3856,0.3857,0.3927,0.3949,0.3947,0.3976,0.3933,0.4043,0.4055,0.4066,0.4116,0.4133,0.3935,0.3935,0.3935,0.3934,0,0.3494,0.3535,0.356,0.3628,0.3671,0.3714,0.3771,0.3811,0.3832,0.3864,0.3934,0.3948,0.399,0.4001,0.3992,0.4079,0.4075,0.4052,0.4014,0.4086,0.4135,0.4151,0.3941,0.394,0.3938,0.3937,0,0,0.3466,0.3566,0.3574,0.3608,0.3697,0.373,0.3805,0.3881,0.3927,0.3971,0.4037,0.4083,0.4096,0.4111,0.4117,0.4157,0.4257,0.4138,0.4139,0.4187,0.4389,0.4412,0.4431,0.4255,0.4258,0.426,0.4397,0,0.3482,0.3555,0.3611,0.3679,0.3721,0.3789,0.3851,0.3925,0.3984,0.4055,0.4102,0.416,0.4138,0.4163,0.4208,0.4251,0.4301,0.4223,0.4314,0.4317,0.4326,0.4451,0.4079,0.4172,0.4413,0.4415,0.4417,0,0.3495,0.3545,0.361,0.3703,0.3728,0.3772,0.388,0.3943,0.4064,0.4114,0.4197,0.4237,0.433,0.4281,0.4405,0.4359,0.4383,0.4403,0.4408,0.4415,0.4371,0.4137,0.4192,0.4444,0.4442,0.444,0.4438,0,0.3439,0.354,0.3584,0.3617,0.373,0.3771,0.3831,0.3952,0.4037,0.4157,0.424,0.4333,0.4409,0.4454,0.452,0.4469,0.4651,0.4579,0.4624,0.4625,0.432,0.4291,0.4663,0.4663,0.4662,0.4662,0.4662,0,0.3425,0.3459,0.3554,0.3577,0.3639,0.3728,0.3813,0.3896,0.4048,0.4152,0.426,0.437,0.4458,0.4576,0.4582,0.469,0.4711,0.4671,0.4679,0.4338,0.431,0.4538,0.4522,0.4667,0.4666,0.4665,0.4664,0,0.3358,0.342,0.3473,0.3577,0.3612,0.365,0.381,0.3875,0.4031,0.4178,0.4231,0.4448,0.46,0.4698,0.4802,0.4798,0.4862,0.4881,0.449,0.4452,0.4775,0.4761,0.4943,0.4945,0.4947,0.4949,0.495,0,0.333,0.3348,0.345,0.3477,0.3522,0.3603,0.3662,0.3835,0.3928,0.4213,0.4281,0.4519,0.4668,0.489,0.4882,0.4948,0.497,0.4652,0.4489,0.4824,0.4812,0.4795,0.4778,0.4099,0.4093,0.4089,0.4085,0,0.3276,0.3307,0.335,0.3411,0.3463,0.3532,0.3637,0.3725,0.3928,0.408,0.4303,0.4464,0.4706,0.4646,0.4777,0.4738,0.4612,0.4567,0.5014,0.4117,0.4048,0.4031,0.4038,0.4043,0.4047,0.4051,0.4053,0.4054,0.3228,0.3239,0.3293,0.3342,0.3392,0.3439,0.3465,0.3579,0.3721,0.3873,0.4132,0.4224,0.4356,0.4378,0.43,0.4228,0.4527,0.4304,0.4308,0.432,0.423,0.4171,0.4172,0.4176,0.4181,0.4184,0.4187,0,0.3152,0.3193,0.3226,0.3268,0.3243,0.3337,0.3427,0.3382,0.3448,0.3622,0.376,0.3571,0.3634,0.3742,0.36,0.3684,0.3527,0.3525,0.3257,0.3307,0.335,0.3197,0.2871,0.2866,0.2862,0.2858,0,0,0.3121,0.3114,0.3129,0.3089,0.3122,0.3045,0.3063,0.3028,0.3081,0.3056,0.3084,0.3382,0.3638,0.3155,0.3168,0.2989,0.3086,0.2874,0.3945,0.3678,0.3712,0.3848,0.3681,0,0,0,0,0]},{"header":{"parameterUnit":"m.s-1","parameterCategory":2,"la1":30.2991,"la2":30.254,"lo1":-89.0895,"lo2":-89.0444,"dy":0.0017,"dx":0.0017,"nx":28,"ny":28,"refTime":"2025-12-18T03:00:00:Z","depth":"2","parameterNumber":3,"parameterNumberName":"V-component_of_CURRENTS"},"data":[0,0,0,0,0,0,0,0,0,0,0,0,0,0,0,0,0,0,0,0,0,0,0,0,0,0,0,0,0,0,0,0,0,0,0,0,0,0,0,0,0,0,0,0,0,0,0,0,0,0,0,0,0,0,0,0,0,0,-0.0075,-0.0075,0,-0.0168,-0.017,-0.0171,-0.0245,-0.0245,-0.0246,-0.0246,-0.0397,-0.0401,-0.0404,0,0,0,0,0,0,0,0,0,0,0,0,0,-0.0045,-0.0044,-0.0075,-0.0076,-0.0076,-0.0168,-0.017,-0.0171,-0.0245,-0.0245,-0.0246,-0.0247,-0.0396,-0.04,-0.0405,0,0,0,0,0,0,0,0,0,0,0,0,0,-0.0092,-0.0044,-0.0074,-0.0122,-0.0127,-0.0168,-0.017,-0.0172,-0.0245,-0.0245,-0.0246,-0.0247,-0.0395,-0.04,-0.0405,-0.0424,0,0,-0.0422,-0.0424,0,0,0,0,0,0,0,0,-0.0089,-0.0093,-0.0114,-0.0119,-0.0125,-0.0193,-0.0215,-0.0258,-0.0244,-0.0203,-0.0246,-0.0247,-0.0332,-0.0343,-0.0362,-0.0431,-0.0437,-0.0422,-0.0425,-0.0428,-0.0429,0,0,0,0,0,0,0,-0.0086,-0.009,-0.0114,-0.0115,-0.0121,-0.0168,-0.0175,-0.0223,-0.0265,-0.0207,-0.0211,-0.0217,-0.0336,-0.0356,-0.0366,-0.044,-0.0422,-0.0427,-0.043,-0.0432,-0.0537,-0.0537,0,0,0,0,0,0,-0.0063,-0.0086,-0.0111,-0.0117,-0.0105,-0.0167,-0.0176,-0.0173,-0.0264,-0.0277,-0.0217,-0.0221,-0.0347,-0.036,-0.0372,-0.0386,-0.0428,-0.0433,-0.0436,-0.0538,-0.0537,-0.0537,0,0,0,0,0,0,-0.0062,-0.0064,-0.0108,-0.0103,-0.0111,-0.0166,-0.0163,-0.0174,-0.0194,-0.027,-0.0286,-0.0225,-0.0348,-0.0364,-0.0406,-0.0393,-0.0435,-0.044,-0.0538,-0.0537,-0.0537,-0.0424,0,0,0,0,0,0,-0.0061,-0.0063,-0.0056,-0.01,-0.011,-0.012,-0.0163,-0.0175,-0.0195,-0.0201,-0.0282,-0.0297,-0.035,-0.0398,-0.0412,-0.0401,-0.0444,-0.0539,-0.0538,-0.0537,-0.0428,-0.042,-0.0412,0,0,0,0,0,-0.0059,-0.0036,-0.0055,-0.0058,-0.0097,-0.0119,-0.0128,-0.0173,-0.0195,-0.0195,-0.025,-0.0295,-0.0403,-0.0402,-0.0418,-0.0409,-0.0539,-0.0538,-0.0537,-0.0432,-0.0421,-0.0413,0,0,0,0,0,0,-0.0019,-0.0042,-0.0064,-0.0049,-0.0079,-0.013,-0.0132,-0.0164,-0.0208,-0.0212,-0.029,-0.0308,-0.0342,-0.039,-0.0387,-0.0438,-0.0479,-0.0481,-0.0393,-0.0384,-0.0376,-0.0347,-0.0449,0,0,0,0,0,-0.0004,0.0006,-0.0032,-0.0021,-0.003,-0.0081,-0.0096,-0.0123,-0.0165,-0.0186,-0.0242,-0.0301,-0.0351,-0.0377,-0.0429,-0.0454,-0.0503,-0.046,-0.0452,-0.0445,-0.0433,-0.05,-0.0496,-0.0534,-0.0534,-0.0534,0,0,0.0014,0.0002,0.0007,-0.0013,-0.0039,-0.0034,-0.0092,-0.0101,-0.0101,-0.0195,-0.0213,-0.0275,-0.0352,-0.038,-0.04,-0.0419,-0.0458,-0.0444,-0.0436,-0.0429,-0.0498,-0.0495,-0.0491,-0.0533,-0.0533,-0.0533,0,0,0.0065,0.0047,0.0074,0.0058,0.0034,0.0005,0.0008,-0.0036,-0.0061,-0.0087,-0.0154,-0.0203,-0.0278,-0.0327,-0.0363,-0.0342,-0.0414,-0.0361,-0.0297,-0.0361,-0.0358,-0.0356,-0.04,-0.0403,-0.0356,-0.0355,-0.0355,0,0.0087,0.0117,0.0077,0.0097,0.0097,0.0032,0.0061,0.0027,-0.0027,-0.004,-0.0077,-0.0185,-0.0251,-0.0289,-0.0284,-0.0323,-0.0366,-0.0324,-0.0349,-0.0348,-0.0348,-0.0394,-0.0399,-0.035,-0.0351,-0.0351,-0.0352,0,0.0157,0.0177,0.0193,0.0199,0.0191,0.0206,0.0162,0.0147,0.0106,0.0067,0.0018,-0.0077,-0.0139,-0.0172,-0.0224,-0.0254,-0.0285,-0.033,-0.0367,-0.0337,-0.0388,-0.0395,-0.0342,-0.0344,-0.0346,-0.0347,0,0,0.0217,0.0241,0.0246,0.0273,0.0251,0.0259,0.0258,0.0241,0.0249,0.0171,0.0167,0.0064,0.0005,-0.0039,-0.0118,-0.0177,-0.0218,-0.0244,-0.025,-0.0276,-0.0346,-0.0369,-0.038,-0.027,-0.0271,-0.0271,-0.0375,0,0.0284,0.0358,0.0343,0.0407,0.0443,0.0393,0.0402,0.0374,0.0329,0.0305,0.0194,0.0156,0.0057,0.0032,-0.0045,-0.0175,-0.0234,-0.0185,-0.0381,-0.0387,-0.0403,-0.0388,-0.0348,-0.0438,-0.0383,-0.0384,-0.0385,0,0.0358,0.0401,0.048,0.0527,0.0538,0.0556,0.0566,0.0566,0.0504,0.0466,0.0394,0.031,0.0214,0.0124,-0.0079,-0.0044,-0.0178,-0.0286,-0.0294,-0.036,-0.0424,-0.0464,-0.0453,-0.0398,-0.0397,-0.0396,-0.0395,0,0.043,0.0497,0.057,0.0583,0.0618,0.0637,0.0645,0.0612,0.0639,0.0565,0.0575,0.0428,0.0373,0.0179,-0.0043,-0.0062,-0.0268,-0.0326,-0.0473,-0.0476,-0.0501,-0.0505,-0.0465,-0.0465,-0.0465,-0.0464,-0.0464,0,0.0509,0.0567,0.061,0.0649,0.0742,0.0722,0.0799,0.0772,0.0769,0.0819,0.0666,0.0675,0.0383,0.0235,0.0007,-0.0244,-0.0233,-0.0454,-0.0505,-0.046,-0.0459,-0.0477,-0.0477,-0.0468,-0.0468,-0.0467,-0.0466,0,0.0577,0.06,0.0693,0.0752,0.0779,0.0839,0.0921,0.0977,0.0944,0.1002,0.0994,0.0863,0.0665,0.0375,0.0064,-0.0156,-0.041,-0.0502,-0.0418,-0.0459,-0.0588,-0.0581,-0.0677,-0.0678,-0.068,-0.0681,-0.0682,0,0.0617,0.0674,0.0778,0.0846,0.0875,0.0968,0.104,0.1054,0.1132,0.1132,0.1183,0.1021,0.0948,0.0485,0.0058,-0.0341,-0.0402,-0.0574,-0.0614,-0.0569,-0.061,-0.0601,-0.0592,-0.0602,-0.0602,-0.0603,-0.0603,0,0.0704,0.0735,0.0816,0.096,0.1052,0.1179,0.1284,0.1384,0.1411,0.1467,0.1517,0.146,0.102,0.0632,0.0066,-0.0219,-0.0514,-0.0592,-0.0574,-0.055,-0.0507,-0.0544,-0.0537,-0.0605,-0.0605,-0.0605,-0.0604,-0.0604,0.0767,0.0843,0.0951,0.1091,0.121,0.1374,0.1504,0.1622,0.1771,0.1857,0.1783,0.1696,0.1228,0.0526,0.0029,-0.0517,-0.0501,-0.0691,-0.0687,-0.0684,-0.0651,-0.0613,-0.0724,-0.0725,-0.0725,-0.0725,-0.0726,0,0.0856,0.0943,0.108,0.125,0.1402,0.1447,0.1666,0.1792,0.1985,0.2029,0.206,0.1643,0.1184,0.0634,-0.0153,-0.0616,-0.0664,-0.0778,-0.072,-0.0714,-0.071,-0.0678,-0.0759,-0.0761,-0.0762,-0.0763,0,0,0.0905,0.1049,0.1124,0.1385,0.1513,0.1729,0.1871,0.2037,0.2133,0.2205,0.215,0.2008,0.1358,0.0796,0.0155,-0.0296,-0.0407,-0.0404,-0.0329,-0.018,-0.017,-0.0615,-0.0553,0,0,0,0,0]}],[{"header":{"parameterUnit":"m.s-1","parameterCategory":2,"la1":30.2991,"la2":30.254,"lo1":-89.0895,"lo2":-89.0444,"dy":0.0017,"dx":0.0017,"nx":28,"ny":28,"refTime":"2025-12-18T03:00:00:Z","depth":"4","parameterNumber":2,"parameterNumberName":"U-component_of_CURRENTS"},"data":[0,0,0,0,0,0,0,0,0,0,0,0,0,0,0,0,0,0,0,0,0,0,0,0,0,0,0,0,0,0,0,0,0,0,0,0,0,0,0,0,0,0,0,0,0,0,0,0,0,0,0,0,0,0,0,0,0,0,0.2199,0.2201,0,0.2317,0.2318,0.2319,0.2403,0.2404,0.2405,0.2406,0.2532,0.2534,0.2536,0,0,0,0,0,0,0,0,0,0,0,0,0,0.2036,0.2039,0.2199,0.2201,0.2203,0.2316,0.2318,0.2319,0.2403,0.2404,0.2405,0.2406,0.2531,0.2534,0.2537,0,0,0,0,0,0,0,0,0,0,0,0,0,0.2123,0.2039,0.2199,0.226,0.2267,0.2316,0.2318,0.2319,0.2403,0.2404,0.2406,0.2407,0.253,0.2533,0.2537,0.2531,0,0,0.2548,0.255,0,0,0,0,0,0,0,0,0.2118,0.2128,0.2249,0.2256,0.2264,0.2349,0.2307,0.2392,0.2402,0.2348,0.2406,0.2408,0.2472,0.2481,0.2495,0.2537,0.2543,0.2549,0.2551,0.2553,0.2554,0,0,0,0,0,0,0,0.2112,0.2124,0.2243,0.2251,0.226,0.2278,0.2292,0.2323,0.2399,0.2353,0.236,0.2377,0.2476,0.2492,0.2499,0.2544,0.2549,0.2552,0.2554,0.2556,0.2744,0.2747,0,0,0,0,0,0,0.2102,0.2118,0.2239,0.2247,0.2196,0.228,0.2295,0.2318,0.2399,0.2413,0.2376,0.2381,0.2485,0.2495,0.2504,0.2646,0.2552,0.2556,0.2558,0.2742,0.2745,0.2748,0,0,0,0,0,0,0.2098,0.2112,0.2234,0.2187,0.2204,0.2282,0.2306,0.232,0.2386,0.2416,0.2431,0.2434,0.2486,0.2499,0.2584,0.2646,0.2558,0.2561,0.2738,0.2743,0.2747,0.2836,0,0,0,0,0,0,0.2093,0.211,0.2145,0.2186,0.2207,0.2298,0.2306,0.2321,0.2392,0.2401,0.247,0.248,0.2488,0.2579,0.2588,0.2649,0.2564,0.2735,0.274,0.2745,0.283,0.2843,0.2855,0,0,0,0,0,0.2087,0.2121,0.2146,0.2162,0.2245,0.23,0.2313,0.2369,0.2394,0.2432,0.2486,0.2481,0.2619,0.2584,0.2594,0.2658,0.2732,0.2739,0.2745,0.2824,0.2841,0.2854,0,0,0,0,0,0,0.2068,0.2135,0.2162,0.2217,0.2272,0.2316,0.2365,0.2395,0.2467,0.2492,0.2514,0.2529,0.2627,0.2629,0.2591,0.2728,0.2676,0.2684,0.2733,0.2748,0.276,0.2756,0.2567,0,0,0,0,0,0.2079,0.213,0.2185,0.2236,0.2267,0.2324,0.2363,0.2403,0.2459,0.2494,0.2543,0.2598,0.2651,0.2691,0.2733,0.2805,0.2809,0.2854,0.2867,0.2877,0.2882,0.2941,0.2959,0.2769,0.2769,0.2769,0,0,0.2087,0.2132,0.2163,0.2238,0.2287,0.2341,0.2353,0.2429,0.2487,0.2495,0.2606,0.2646,0.2681,0.2768,0.2812,0.2785,0.2937,0.2885,0.2893,0.2893,0.2949,0.2968,0.2984,0.2773,0.2772,0.2772,0,0,0.2112,0.2171,0.2218,0.2269,0.2354,0.2388,0.242,0.2496,0.2553,0.2646,0.2674,0.2753,0.2834,0.2874,0.2899,0.3003,0.2999,0.3028,0.3091,0.315,0.3165,0.3179,0.3218,0.3234,0.3035,0.3036,0.3036,0,0.2122,0.2185,0.2241,0.2297,0.2349,0.2413,0.2472,0.2532,0.2632,0.2687,0.2699,0.2848,0.288,0.298,0.3023,0.3032,0.3059,0.303,0.3165,0.3178,0.3191,0.3227,0.3244,0.3041,0.304,0.304,0.3039,0,0.2166,0.2237,0.2272,0.2365,0.2427,0.2493,0.2573,0.2655,0.2727,0.2783,0.2918,0.2969,0.3056,0.3085,0.3089,0.3205,0.3194,0.3171,0.3122,0.3215,0.3248,0.3264,0.3048,0.3046,0.3045,0.3043,0,0,0.2133,0.2275,0.2293,0.2349,0.2473,0.2519,0.2635,0.2743,0.2823,0.2931,0.3037,0.314,0.3182,0.3213,0.3241,0.3294,0.3409,0.3282,0.3283,0.3312,0.3542,0.334,0.3337,0.3419,0.3422,0.3424,0.3532,0,0.2155,0.2258,0.2333,0.2443,0.2501,0.2606,0.2699,0.2812,0.2914,0.3032,0.3118,0.3228,0.3227,0.3289,0.3348,0.34,0.3455,0.3382,0.3455,0.3457,0.3257,0.335,0.3434,0.3544,0.3547,0.355,0.3552,0,0.2161,0.2236,0.2342,0.2486,0.2524,0.2604,0.2767,0.2862,0.3031,0.3116,0.3244,0.3315,0.3445,0.3414,0.3555,0.3516,0.3544,0.3563,0.3568,0.3353,0.3283,0.343,0.358,0.3578,0.3576,0.3574,0.3572,0,0.2085,0.2237,0.2324,0.2374,0.2543,0.2626,0.2726,0.2894,0.3002,0.3185,0.3287,0.3424,0.353,0.359,0.366,0.3627,0.3787,0.3735,0.3575,0.3562,0.367,0.3654,0.3822,0.3821,0.3821,0.3821,0.3821,0,0.205,0.2125,0.2302,0.2346,0.2463,0.2597,0.2742,0.286,0.3054,0.3169,0.3333,0.3437,0.3586,0.3695,0.3711,0.37,0.3836,0.3599,0.358,0.3707,0.3694,0.3682,0.3664,0.3825,0.3824,0.3823,0.3822,0,0.1948,0.2066,0.2172,0.2362,0.2431,0.2515,0.2753,0.2842,0.3046,0.3206,0.328,0.3506,0.3626,0.3742,0.3849,0.3756,0.3762,0.3721,0.3873,0.3858,0.3482,0.3468,0.3533,0.3527,0.3522,0.3517,0.3514,0,0.19,0.1948,0.2159,0.2227,0.2323,0.2479,0.2579,0.281,0.2909,0.3207,0.3257,0.348,0.3591,0.3593,0.3715,0.374,0.3697,0.3675,0.3546,0.3479,0.3456,0.345,0.3443,0.3505,0.3504,0.3503,0.3501,0,0.1808,0.1902,0.199,0.2131,0.2249,0.2369,0.2533,0.2599,0.2842,0.3059,0.316,0.3241,0.3378,0.3452,0.3517,0.352,0.3667,0.3619,0.3628,0.3506,0.3446,0.3427,0.3426,0.3483,0.3486,0.3487,0.3488,0,0.1744,0.1778,0.1908,0.2012,0.2148,0.2214,0.2326,0.2443,0.2579,0.2889,0.291,0.3133,0.3329,0.3341,0.3393,0.3394,0.3327,0.3199,0.3228,0.325,0.3108,0.2988,0.2878,0,0,0,0,0,0.1669,0.1694,0.178,0.1881,0.2002,0.2083,0.2271,0.2384,0.262,0.2612,0.2757,0.2857,0.2953,0.308,0.3023,0.3277,0.3345,0.3197,0.3213,0.3382,0.3403,0.3263,0,0,0,0,0,0,0.1622,0.1695,0.1728,0.1747,0.1785,0.1901,0.201,0.2167,0.2184,0.2427,0.2497,0.2678,0.2819,0.2945,0.2962,0.3,0.2951,0.3341,0.3333,0.3371,0.339,0.3406,0.3269,0,0,0,0,0]},{"header":{"parameterUnit":"m.s-1","parameterCategory":2,"la1":30.2991,"la2":30.254,"lo1":-89.0895,"lo2":-89.0444,"dy":0.0017,"dx":0.0017,"nx":28,"ny":28,"refTime":"2025-12-18T03:00:00:Z","depth":"4","parameterNumber":3,"parameterNumberName":"V-component_of_CURRENTS"},"data":[0,0,0,0,0,0,0,0,0,0,0,0,0,0,0,0,0,0,0,0,0,0,0,0,0,0,0,0,0,0,0,0,0,0,0,0,0,0,0,0,0,0,0,0,0,0,0,0,0,0,0,0,0,0,0,0,0,0,0.0144,0.0143,0,0.0071,0.0071,0.007,0.0014,0.0014,0.0013,0.0013,-0.0112,-0.0115,-0.0118,0,0,0,0,0,0,0,0,0,0,0,0,0,0.0177,0.0176,0.0144,0.0143,0.0143,0.0072,0.007,0.0069,0.0014,0.0014,0.0013,0.0013,-0.0111,-0.0114,-0.0118,0,0,0,0,0,0,0,0,0,0,0,0,0,0.0138,0.0176,0.0144,0.0108,0.0104,0.0072,0.007,0.0069,0.0014,0.0014,0.0013,0.0013,-0.011,-0.0114,-0.0119,-0.0136,0,0,-0.0132,-0.0134,0,0,0,0,0,0,0,0,0.014,0.0136,0.0114,0.011,0.0106,0.0053,0.0036,-0.0001,0.0014,0.0046,0.0013,0.0012,-0.006,-0.0069,-0.0083,-0.0142,-0.0147,-0.0133,-0.0135,-0.0137,-0.0139,0,0,0,0,0,0,0,0.0143,0.0139,0.0113,0.0113,0.0108,0.0075,0.007,0.0029,-0.0005,0.0043,0.004,0.0035,-0.0063,-0.0078,-0.0086,-0.0149,-0.0133,-0.0137,-0.0139,-0.0141,-0.0242,-0.0241,0,0,0,0,0,0,0.0159,0.0142,0.0116,0.0111,0.0124,0.0076,0.0069,0.0069,-0.0004,-0.0015,0.0035,0.0032,-0.0071,-0.0081,-0.0091,-0.0112,-0.0137,-0.0142,-0.0144,-0.0242,-0.0242,-0.0241,0,0,0,0,0,0,0.016,0.0158,0.0119,0.0126,0.0119,0.0076,0.0076,0.0068,0.0051,-0.0009,-0.0022,0.0028,-0.0071,-0.0085,-0.0123,-0.0117,-0.0144,-0.0148,-0.0242,-0.0242,-0.0242,-0.0156,0,0,0,0,0,0,0.0161,0.0159,0.0164,0.0127,0.0119,0.0107,0.0077,0.0067,0.005,0.0045,-0.002,-0.0032,-0.0073,-0.0116,-0.0127,-0.0124,-0.0151,-0.0242,-0.0242,-0.0242,-0.0159,-0.0153,-0.0148,0,0,0,0,0,0.0163,0.0178,0.0165,0.0162,0.0129,0.0108,0.0101,0.0066,0.005,0.0048,0.0004,-0.003,-0.0124,-0.0119,-0.0133,-0.0131,-0.0242,-0.0242,-0.0242,-0.0162,-0.0154,-0.0149,0,0,0,0,0,0,0.0195,0.0173,0.0158,0.0165,0.0141,0.0099,0.0098,0.0072,0.0036,0.0033,-0.0029,-0.0044,-0.0076,-0.0116,-0.0109,-0.0161,-0.0189,-0.0192,-0.0124,-0.0118,-0.0112,-0.0088,-0.0155,0,0,0,0,0,0.0206,0.0212,0.018,0.0186,0.0178,0.0138,0.0125,0.0104,0.0068,0.0051,0.0006,-0.0044,-0.0087,-0.011,-0.0154,-0.018,-0.0222,-0.0189,-0.0184,-0.0179,-0.0169,-0.0231,-0.023,-0.0241,-0.0241,-0.0241,0,0,0.0221,0.0209,0.0213,0.0193,0.0172,0.0173,0.0129,0.0119,0.0115,0.0043,0.0025,-0.0026,-0.009,-0.0119,-0.0137,-0.015,-0.0197,-0.0179,-0.0174,-0.0167,-0.0231,-0.023,-0.0229,-0.0241,-0.0241,-0.0241,0,0,0.0258,0.0244,0.0261,0.0247,0.0224,0.0202,0.0202,0.0164,0.0143,0.0118,0.0065,0.0021,-0.0042,-0.0085,-0.0116,-0.0108,-0.0167,-0.0125,-0.0078,-0.0138,-0.0137,-0.0137,-0.0182,-0.0186,-0.0122,-0.0121,-0.0121,0,0.0277,0.0294,0.0262,0.0272,0.0271,0.0221,0.0239,0.021,0.0163,0.0151,0.0125,0.003,-0.0025,-0.0064,-0.0062,-0.0095,-0.0134,-0.0094,-0.0129,-0.0131,-0.0132,-0.0178,-0.0184,-0.0117,-0.0118,-0.0118,-0.0119,0,0.0322,0.0335,0.0345,0.0345,0.0337,0.0345,0.0308,0.0293,0.0261,0.0228,0.0183,0.0105,0.0051,0.0022,-0.0019,-0.0054,-0.008,-0.0114,-0.014,-0.0125,-0.0175,-0.0183,-0.0111,-0.0113,-0.0114,-0.0115,0,0,0.0365,0.0377,0.0381,0.04,0.0379,0.0383,0.0377,0.036,0.0362,0.0298,0.0289,0.0202,0.0156,0.0118,0.0053,-0.0002,-0.0048,-0.0054,-0.0059,-0.0086,-0.0171,-0.0171,-0.0181,-0.009,-0.0091,-0.0092,-0.0199,0,0.0412,0.0458,0.0447,0.0492,0.0514,0.0477,0.048,0.0455,0.0417,0.0394,0.0303,0.0269,0.0193,0.0171,0.0102,-0.001,-0.0067,-0.0016,-0.0191,-0.0196,-0.0189,-0.0189,-0.0095,-0.0205,-0.0207,-0.0208,-0.0209,0,0.0458,0.0486,0.0542,0.0577,0.0584,0.06,0.0603,0.0598,0.0544,0.0514,0.0453,0.0384,0.0297,0.0231,0.0049,0.0085,-0.003,-0.0123,-0.013,-0.0164,-0.0211,-0.0228,-0.0225,-0.0223,-0.0222,-0.0221,-0.022,0,0.0506,0.0554,0.0607,0.0616,0.0641,0.066,0.0667,0.0635,0.0651,0.059,0.0595,0.0468,0.0418,0.0253,0.0063,0.0055,-0.0139,-0.0178,-0.0288,-0.0289,-0.0294,-0.0294,-0.0306,-0.0306,-0.0305,-0.0305,-0.0305,0,0.0555,0.06,0.0639,0.0667,0.0739,0.0725,0.0784,0.0761,0.0754,0.0781,0.0665,0.0652,0.042,0.0285,0.0096,-0.0113,-0.0119,-0.0275,-0.0318,-0.0256,-0.0249,-0.03,-0.0298,-0.0309,-0.0308,-0.0307,-0.0307,0,0.0595,0.0618,0.0688,0.0738,0.0764,0.0809,0.088,0.0916,0.0893,0.0923,0.0916,0.0791,0.0606,0.0372,0.0101,-0.0052,-0.0264,-0.034,-0.0237,-0.0273,-0.0383,-0.0375,-0.0468,-0.0468,-0.0469,-0.047,-0.047,0,0.0617,0.0657,0.0747,0.08,0.0829,0.0906,0.0962,0.0979,0.1022,0.1008,0.1027,0.0878,0.0761,0.0399,0.0129,-0.0225,-0.0283,-0.0387,-0.0404,-0.0368,-0.04,-0.0391,-0.0383,-0.0472,-0.0472,-0.0472,-0.0472,0,0.066,0.0693,0.0752,0.0866,0.0944,0.1042,0.112,0.117,0.1185,0.1179,0.1125,0.0934,0.0725,0.0418,0.0143,-0.0116,-0.0318,-0.0397,-0.0398,-0.0414,-0.0374,-0.0403,-0.0394,-0.0475,-0.0474,-0.0474,-0.0474,0,0.0691,0.0741,0.0824,0.0925,0.1035,0.1137,0.1179,0.123,0.1271,0.1246,0.1225,0.0989,0.0848,0.0474,0.0221,-0.0034,-0.011,-0.0196,-0.0209,-0.0209,-0.0113,-0.0022,-0.0046,0,0,0,0,0,0.0715,0.0778,0.0877,0.099,0.1102,0.117,0.127,0.13,0.1326,0.1303,0.1267,0.1069,0.0694,0.0535,0.028,0.0182,-0.0167,-0.0126,-0.0275,-0.049,-0.0487,-0.042,0,0,0,0,0,0,0.073,0.0825,0.0878,0.1029,0.1118,0.1247,0.1315,0.1332,0.132,0.1302,0.1112,0.1007,0.0645,0.0843,0.0279,0.02,0.007,-0.0304,-0.0309,-0.0491,-0.0489,-0.0486,-0.0416,0,0,0,0,0]}]]